User: anonymous   Login
Location: Caualo
(45.5667°N, 10.8667°E)
Time: 11:45:22
(UTC+00:00)
Language:

In-Cosmos 22 Rocket - Orbit

View from above orbital plane
View from above orbital plane
View from above satellite
View from above satellite

Ground track
Ground track

The orbit data is extracted from the following two-line orbital elements,

1 12646U 81075B   20226.90852264 -.00000036 +00000-0 -23890-4 0  9995
2 12646 081.2246 215.5493 0066604 296.0949 125.7202 14.15898009014788
Epoch (UTC): 13 August 2020 21:48:16
Eccentricity: 0.0066604
inclination: 81.2246°
perigee height: 791 km
apogee height: 887 km
right ascension of ascending node: 215.5493°
argument of perigee: 296.0949°
revolutions per day: 14.15898009
mean anomaly at epoch: 125.7202°
orbit number at epoch: 1478

The dashed part of the orbit path shows where the satellite is in the earth's shadow,  

DLR